カタログに戻る

SL-8 R/B

運用中PO
NORAD 28522·ROCKET BODY·🇷🇺 Russia

打ち上げ Jan 20, 2005 から Plesetsk Cosmodrome

Loading…

次のパス (今後24時間)

TLE

最新Source: Space-Track

元期: Sep 14, 2026, 09:37 UTC

1 28522U 05002B   26257.40137634  .00000101  00000-0  68429-4 0  9991
2 28522  82.9470 314.0917 0044713 337.4125  22.5070 13.90066712 97995

AllMySatでSL-8 R/Bをリアルタイム追跡

Download on the App Store